Location: Poprad
(49.0500°N, 20.3000°E)
Time: 19:27:27
(UTC+02:00)

RS-44 - Pass Details

Date: 19 April 2024
Orbit: 1174 x 1511 km, 82.5° (Epoch: 20 May)

Event Time Altitude Azimuth Distance (km) Brightness Sun altitude
Rises 21:00:01 0° 194° (SSW) 4,638 ? -12.8°
Reaches altitude 10° 21:02:57 10° 196° (SSW) 3,652 ? -13.2°
Maximum altitude 21:11:49 75° 282° (WNW) 1,513 ? -14.4°
Drops below altitude 10° 21:20:18 10° 8° (N) 3,497 ? -15.5°
Sets 21:23:04 0° 10° (N) 4,432 ? -15.8°
